Yatton Keynell, United Kingdom

8:24 PM GMT on March 24, 2019 (GMT +0000)
Yatton Keynell

Weather History for 03740 - July, 2001

Change the Weather History Date:

Saturday, July 28, 2001

  Actual Average Record
Temperature  
Mean Temperature 71 °F -  
Max Temperature 82 °F 68 °F - ()
Min Temperature 60 °F 53 °F - ()
Cooling Degree Days 6    
Growing Degree Days 21 (Base 50)    
Moisture  
Dew Point 57 °F    
Average Humidity 59    
Maximum Humidity 82    
Minimum Humidity 37    
Precipitation  
Precipitation 0.00 in 0.08 in - ()
Sea Level Pressure  
Sea Level Pressure 30.17 in    
Wind  
Wind Speed 4 mph ()    
Max Wind Speed 7 mph    
Max Gust Speed -    
Visibility 6.2 miles    
Events      
T = Trace of Precipitation, MM = Missing Value Source: Averaged Metar Reports

Daily Weather History Graph

Daily Weather History Graph

Search for Another Location

Airport or City:

Astronomy

Jul. 28, 2001 Rise Set
Actual Time 5:25 AM BST 9:02 PM BST
Civil Twilight 4:44 AM BST 9:43 PM BST
Nautical Twilight 3:47 AM BST 10:39 PM BST
Astronomical Twilight 2:21 AM BST 12:03 AM BST
Moon 3:11 PM BST (7/28) 12:29 AM BST (7/28)
Length of Visible Light 16h 59m
Length of Day
15h 36m
First Quarter, 61% of the Moon is Illuminated
Jul 28
First Quarter
Aug 4
Full
Aug 12
Last Quarter
Aug 19
New
Aug 25
First Quarter

Hourly Weather History & Observations

Time (BST) Temp. Heat Index Dew Point Humidity Pressure Visibility Wind Dir Wind Speed Gust Speed Precip Events Conditions
12:50 AM 68.0 °F - 57.2 °F 68% 30.12 in - North 4.6 mph - N/A   Clear
1:50 AM 66.2 °F - 57.2 °F 73% 30.12 in - NNE 4.6 mph - N/A   Clear
2:50 AM 64.4 °F - 57.2 °F 77% 30.12 in - NNE 4.6 mph - N/A   Clear
3:50 AM 64.4 °F - 55.4 °F 73% 30.12 in - NNE 6.9 mph - N/A   Clear
4:50 AM 60.8 °F - 55.4 °F 82% 30.12 in - NNE 5.8 mph - N/A   Clear
5:50 AM 60.8 °F - 55.4 °F 82% 30.15 in - NE 2.3 mph - N/A   Clear
6:50 AM 62.6 °F - 57.2 °F 82% 30.15 in - NNE 3.5 mph - N/A   Clear
7:50 AM 68.0 °F - 59.0 °F 73% 30.18 in - NNE 2.3 mph - N/A   Clear
8:50 AM 68.0 °F - 59.0 °F 73% 30.18 in - NNE 3.5 mph - N/A   Clear
9:50 AM 73.4 °F - 60.8 °F 65% 30.21 in - NNE 4.6 mph - N/A   Clear
10:50 AM 77.0 °F - 59.0 °F 54% 30.18 in 6.2 mi NNE 6.9 mph - N/A   Partly Cloudy
11:50 AM 78.8 °F - 57.2 °F 47% 30.18 in 6.2 mi North 4.6 mph - N/A   Partly Cloudy
12:50 PM 78.8 °F - 57.2 °F 47% 30.18 in 6.2 mi NNW 5.8 mph - N/A   Mostly Cloudy
1:50 PM 82.4 °F 82.0 °F 57.2 °F 42% 30.18 in 6.2 mi North 5.8 mph - N/A   Mostly Cloudy
2:50 PM 82.4 °F 81.7 °F 55.4 °F 39% 30.18 in - West 5.8 mph - N/A   Clear
3:50 PM 82.4 °F 81.7 °F 55.4 °F 39% 30.18 in - NW 4.6 mph - N/A   Clear
4:50 PM 82.4 °F 81.4 °F 53.6 °F 37% 30.18 in - WNW 5.8 mph - N/A   Clear
5:50 PM 82.4 °F 81.4 °F 53.6 °F 37% 30.18 in - NW 3.5 mph - N/A   Clear
6:50 PM 80.6 °F 80.5 °F 55.4 °F 42% 30.18 in - NW 5.8 mph - N/A   Clear
7:50 PM 78.8 °F - 57.2 °F 47% 30.18 in - NW 6.9 mph - N/A   Clear
8:50 PM 77.0 °F - 59.0 °F 54% 30.18 in - NNW 3.5 mph - N/A   Clear
9:50 PM 75.2 °F - 57.2 °F 53% 30.21 in - NW 4.6 mph - N/A   Clear
10:50 PM 73.4 °F - 59.0 °F 61% 30.21 in - East 3.5 mph - N/A   Clear
11:50 PM 71.6 °F - 59.0 °F 64% 30.21 in - South 5.8 mph - N/A   Clear